Regional Weather Roundup
Issued by NWS Sterling, VA

Home | Current Version | Previous Version | Text Only | Print | Product List | Glossary Off
Versions: 1 2 3 4 5 6 7 8 9 10 11 12 13 14 15 16 17 18 19 20 21 22 23 24 25 26 27 28 29 30 31 32 33 34 35 36 37 38 39 40 41 42 43 44 45 46 47 48 49 50

000
ASUS41 KLWX 011210
RWRLWX

REGIONAL WEATHER ROUNDUP
NATIONAL WEATHER SERVICE BALTIMORE MD/WASHINGTON DC
800 AM EDT SAT AUG 01 2015

Note: "FAIR" indicates few or no clouds below 12,000 feet
with no significant weather and/or obstructions to visibility.
 TC=TEMPERATURE CELSIUS

 * =Non NWS site. Station does not report precipitation (e.g. rain,
    snow, etc.), thunder, or fog.

DCZ001-MDZ009-015-VAZ040>042-051-053>054-011300-
WASHINGTON METRO

CITY           SKY/WX    TMP DP  RH WIND       PRES   REMARKS
WASHINGTON NAT MOSUNNY   78  64  61 S6        29.88R
DULLES         MOSUNNY   71  65  81 S3        29.89R
ANDREWS AFB    SUNNY     76  66  70 W8        29.88R
FT BELVOIR     SUNNY     69  68  96 CALM      29.88R
COLLEGE PARK*  SUNNY     73  70  88 CALM      29.87S
LEESBURG*      SUNNY     72  68  88 CALM      29.90S
MANASSAS*      SUNNY     70  66  88 CALM      29.89R
GAITHERSBURG*  PTSUNNY   70  64  83 NW3       29.93R

$$

MDZ006>007-011-014-011300-
BALTIMORE METRO

CITY           SKY/WX    TMP DP  RH WIND       PRES   REMARKS
BWI AIRPORT    MOSUNNY   75  64  68 W6        29.87R
MD SCIENCE CTR   N/A     79  61  53 MISG      29.87R
MARTIN STATE   MOSUNNY   77  64  65 W6        29.87S
ANNAPOLIS      SUNNY     78  63  59 NW3       29.86S
FORT MEADE*    SUNNY     68  66  94 CALM      29.90R

$$

MDZ012-015-019>023-011300-
MARYLAND EASTERN SHORE

CITY           SKY/WX    TMP DP  RH WIND       PRES   REMARKS
OCEAN CITY     SUNNY     79  69  71 W7        29.88S
SALISBURY      SUNNY     76  69  79 SW6       29.88S
BAY BRIDGE AP*   N/A     79  63  57 W3        29.87S
CAMBRIDGE*     SUNNY     77  68  73 CALM      29.87S
EASTON*        SUNNY     79  72  78 CALM      29.90S

$$

MDZ017>025-011300-
SOUTHERN MARYLAND

CITY           SKY/WX    TMP DP  RH WIND       PRES   REMARKS
PATUXENT RIVER MOSUNNY   74  66  76 SW7       29.88S
ST INIGOES     SUNNY     75  66  73 SW8       29.88S
LEONARDTOWN*   SUNNY     73  64  73 CALM      29.91R

$$

MDZ003>005-011300-
NORTH CENTRAL MARYLAND

CITY           SKY/WX    TMP DP  RH WIND       PRES   REMARKS
FREDERICK*     MOSUNNY   72  66  83 S5        29.91R
HAGERSTOWN APT SUNNY     72  61  68 VRB3      29.89S
WESTMINSTER*   MOSUNNY   72  63  73 SW6       29.89S

$$

MDZ501>502-011300-
WESTERN MARYLAND

CITY           SKY/WX    TMP DP  RH WIND       PRES   REMARKS
OAKLAND*       PTSUNNY   63 N/A N/A W8        30.01R
CUMBERLAND*    SUNNY     70  63  78 CALM      29.96R

$$

VAZ025>031-011300-
SHENANDOAH VALLEY

CITY           SKY/WX    TMP DP  RH WIND       PRES   REMARKS
WINCHESTER*    SUNNY     73  61  64 SW9       29.91S
FRONT ROYAL*   FAIR      68  61  77 S6        29.91R
LURAY*         FAIR      68  64  88 CALM      29.94R
NEW MARKET*    FAIR      65  61  86 CALM      29.93S
STAUNTON*      SUNNY     69  62  80 SW3       29.97S
WAYNESBORO*    FAIR      70  60  70 W5        29.97S

$$

WVZ021-048>050-054>055-011300-
EASTERN WEST VIRGINIA PANHANDLE

CITY           SKY/WX    TMP DP  RH WIND       PRES   REMARKS
MARTINSBURG    SUNNY     68  61  78 SE3       29.90R
PETERSBURG*    SUNNY    N/A N/A N/A CALM      29.94S

$$

VAZ036>039-050-011300-
CENTRAL FOOTHILLS

CITY           SKY/WX    TMP DP  RH WIND       PRES   REMARKS
CHARLOTTESVILL SUNNY     74  62  66 CALM      29.91S
CULPEPER*      SUNNY     67  65  94 CALM      29.91R
ORANGE*        SUNNY     70  64  83 CALM      29.92S
GORDONSVILLE*  FAIR      68  64  88 CALM      29.91R
WARRENTON*     FAIR      70  67  92 CALM      29.89S

$$

VAZ055>057-011300-
NORTH AND CENTRAL PIEDMONT

CITY           SKY/WX    TMP DP  RH WIND       PRES   REMARKS
FREDERICKSBRG* SUNNY     71  68  89 CALM      29.89S
STAFFORD*      SUNNY     68  65  90 CALM      29.93S

$$

NCZ024-NYZ072-PAZ021-071-VAZ022-071-011300-
OTHER REGIONAL OBSERVATIONS

CITY           SKY/WX    TMP DP  RH WIND       PRES   REMARKS
NEW YORK CITY  SUNNY     76  60  57 VRB3      29.83S
PHILADELPHIA   MOSUNNY   78  64  61 SW8       29.85R
PITTSBURGH     MOSUNNY   67  58  72 W7        29.93R
ROANOKE        SUNNY     71  59  65 W9        29.99S
RICHMOND       MOSUNNY   71  65  81 S3        29.91R
RALEIGH        MOSUNNY   73  66  78 CALM      29.96R

$$

ANZ530>537-011300-
MARINE OBSERVATIONS

STATION/POSITION TIME  TEMP    WIND        PRES
                       AIR SEA DIR/SP/G
                 (UTC) (F)     (DEG/KT/KT) (MB)
THOMAS PT LIGHT  NOT AVBL
BALT KEY BRIDGE  1100   74     250/  8/  9 1010.8R
COVE POINT       1100   76     280/  7/ 10 1012.1R
LEWISETTA        1100   74 83  240/  6/  8 1011.5R
SOLOMONS ISLAND  1100      83                N/A
PINEY POINT      1100          240/  7/ 10   N/A

$$




USA.gov is the U.S. government's official web portal to all federal, state and local government web resources and services.